Time,TemperatureF,DewpointF,PressureIn,WindDirection,WindDirectionDegrees,WindSpeedMPH,WindSpeedGustMPH,Humidity,HourlyPrecipIn,Conditions,Clouds,dailyrainin,SoftwareType,DateUTC
2013-05-03 00:00:00,33.3,32.5,30.31,North,9,2.0,2.0,97,0.00,,,0.61,Wunderground v.1.15,2013-05-03 05:00:00,
2013-05-03 00:05:00,33.3,32.5,30.31,North,350,1.0,4.0,97,0.00,,,0.01,Wunderground v.1.15,2013-05-03 05:05:00,
2013-05-03 00:10:00,33.3,32.5,30.31,North,355,2.0,3.0,97,0.00,,,0.01,Wunderground v.1.15,2013-05-03 05:10:00,
2013-05-03 00:15:00,33.3,32.5,30.31,NNE,14,3.0,3.0,97,0.00,,,0.01,Wunderground v.1.15,2013-05-03 05:15:00,
2013-05-03 00:20:00,33.3,32.5,30.31,NNW,342,1.0,1.0,97,0.00,,,0.01,Wunderground v.1.15,2013-05-03 05:20:00,
2013-05-03 00:25:00,33.3,32.5,30.32,North,351,1.0,3.0,97,0.00,,,0.01,Wunderground v.1.15,2013-05-03 05:25:00,
2013-05-03 00:35:00,33.3,32.5,30.32,North,355,1.0,3.0,97,0.00,,,0.01,Wunderground v.1.15,2013-05-03 05:35:00,
2013-05-03 00:40:00,33.3,32.5,30.32,North,5,3.0,3.0,97,0.00,,,0.01,Wunderground v.1.15,2013-05-03 05:40:00,
2013-05-03 00:45:00,33.3,32.5,30.31,NNW,344,3.0,5.0,97,0.00,,,0.02,Wunderground v.1.15,2013-05-03 05:45:00,
2013-05-03 00:50:00,33.3,32.5,30.30,North,355,3.0,3.0,97,0.00,,,0.02,Wunderground v.1.15,2013-05-03 05:50:00,
2013-05-03 00:55:00,33.3,32.5,30.30,ENE,67,2.0,3.0,97,0.00,,,0.02,Wunderground v.1.15,2013-05-03 05:55:00,
2013-05-03 01:00:00,33.3,32.5,30.30,NW,318,1.0,4.0,97,0.00,,,0.02,Wunderground v.1.15,2013-05-03 06:00:00,
2013-05-03 01:05:00,33.2,32.4,30.30,NNW,342,2.0,4.0,97,0.00,,,0.02,Wunderground v.1.15,2013-05-03 06:05:00,
2013-05-03 01:15:00,33.2,32.4,30.29,North,5,1.0,2.0,97,0.00,,,0.02,Wunderground v.1.15,2013-05-03 06:15:00,
2013-05-03 01:20:00,33.2,32.4,30.28,NW,323,0.0,0.0,97,0.00,,,0.02,Wunderground v.1.15,2013-05-03 06:20:00,
2013-05-03 01:25:00,33.2,32.4,30.27,NNW,329,2.0,2.0,97,0.00,,,0.02,Wunderground v.1.15,2013-05-03 06:25:00,
2013-05-03 01:30:00,33.1,32.3,30.27,North,9,2.0,2.0,97,0.00,,,0.02,Wunderground v.1.15,2013-05-03 06:30:00,
2013-05-03 01:35:00,33.1,32.3,30.26,NNW,344,1.0,6.0,97,0.00,,,0.02,Wunderground v.1.15,2013-05-03 06:35:00,
2013-05-03 01:40:00,33.2,32.4,30.26,NE,36,2.0,2.0,97,0.00,,,0.02,Wunderground v.1.15,2013-05-03 06:40:00,
2013-05-03 01:45:00,33.1,32.3,30.26,North,360,1.0,2.0,97,0.00,,,0.02,Wunderground v.1.15,2013-05-03 06:45:00,
2013-05-03 01:50:00,33.1,32.3,30.25,NW,304,1.0,1.0,97,0.00,,,0.02,Wunderground v.1.15,2013-05-03 06:50:00,
2013-05-03 01:55:00,33.1,32.3,30.25,NNW,346,1.0,3.0,97,0.00,,,0.02,Wunderground v.1.15,2013-05-03 06:55:00,
2013-05-03 02:00:00,33.1,32.3,30.25,North,11,1.0,1.0,97,0.00,,,0.03,Wunderground v.1.15,2013-05-03 07:00:00,
2013-05-03 02:10:00,33.1,32.3,30.25,NNW,333,2.0,3.0,97,0.00,,,0.03,Wunderground v.1.15,2013-05-03 07:10:00,
2013-05-03 02:15:00,33.1,32.3,30.25,NNW,335,2.0,3.0,97,0.00,,,0.03,Wunderground v.1.15,2013-05-03 07:15:00,
2013-05-03 02:20:00,33.1,32.3,30.25,NNW,348,1.0,1.0,97,0.00,,,0.03,Wunderground v.1.15,2013-05-03 07:20:00,
2013-05-03 02:25:00,33.0,32.2,30.25,North,350,1.0,1.0,97,0.00,,,0.03,Wunderground v.1.15,2013-05-03 07:25:00,
2013-05-03 02:30:00,33.0,32.2,30.24,NNW,337,2.0,2.0,97,0.00,,,0.03,Wunderground v.1.15,2013-05-03 07:30:00,
2013-05-03 02:35:00,33.0,32.2,30.24,NNW,341,1.0,2.0,97,0.00,,,0.03,Wunderground v.1.15,2013-05-03 07:35:00,
2013-05-03 02:40:00,33.0,32.2,30.24,NNW,344,0.0,0.0,97,0.00,,,0.03,Wunderground v.1.15,2013-05-03 07:40:00,
2013-05-03 02:45:00,32.9,32.1,30.23,NNW,338,0.0,0.0,97,0.00,,,0.03,Wunderground v.1.15,2013-05-03 07:45:00,
2013-05-03 02:50:00,32.9,32.1,30.23,NNW,327,0.0,0.0,97,0.00,,,0.03,Wunderground v.1.15,2013-05-03 07:50:00,
2013-05-03 03:00:00,32.9,32.1,30.22,NW,322,0.0,0.0,97,0.00,,,0.03,Wunderground v.1.15,2013-05-03 08:00:00,
2013-05-03 03:05:00,32.9,32.1,30.23,NNW,329,1.0,1.0,97,0.00,,,0.03,Wunderground v.1.15,2013-05-03 08:05:00,
2013-05-03 03:15:00,32.9,32.1,30.22,NE,38,3.0,3.0,97,0.00,,,0.03,Wunderground v.1.15,2013-05-03 08:15:00,
2013-05-03 03:20:00,32.9,32.1,30.22,NNW,335,2.0,4.0,97,0.00,,,0.03,Wunderground v.1.15,2013-05-03 08:20:00,
2013-05-03 03:25:00,32.9,32.1,30.22,NNW,348,2.0,4.0,97,0.00,,,0.03,Wunderground v.1.15,2013-05-03 08:25:00,
2013-05-03 03:30:00,32.9,32.1,30.22,NNW,340,1.0,3.0,97,0.00,,,0.03,Wunderground v.1.15,2013-05-03 08:30:00,
2013-05-03 03:35:00,32.9,32.1,30.22,North,355,1.0,3.0,97,0.00,,,0.03,Wunderground v.1.15,2013-05-03 08:35:00,
2013-05-03 03:40:00,32.9,32.1,30.23,NNW,345,1.0,4.0,97,0.00,,,0.03,Wunderground v.1.15,2013-05-03 08:40:00,
2013-05-03 03:50:00,32.9,32.1,30.22,NNE,26,2.0,2.0,97,0.00,,,0.04,Wunderground v.1.15,2013-05-03 08:50:00,
2013-05-03 03:55:00,32.9,32.1,30.21,NNE,19,1.0,2.0,97,0.00,,,0.04,Wunderground v.1.15,2013-05-03 08:55:00,
2013-05-03 04:00:00,32.8,32.0,30.21,North,355,0.0,0.0,97,0.00,,,0.04,Wunderground v.1.15,2013-05-03 09:00:00,
2013-05-03 04:05:00,32.8,32.0,30.20,North,5,1.0,1.0,97,0.00,,,0.04,Wunderground v.1.15,2013-05-03 09:05:00,
2013-05-03 04:10:00,32.8,32.0,30.20,NNW,348,2.0,2.0,97,0.00,,,0.04,Wunderground v.1.15,2013-05-03 09:10:00,
2013-05-03 04:20:00,32.8,32.0,30.20,North,355,1.0,1.0,97,0.00,,,0.04,Wunderground v.1.15,2013-05-03 09:20:00,
2013-05-03 04:30:00,32.8,32.0,30.20,North,355,0.0,0.0,97,0.00,,,0.04,Wunderground v.1.15,2013-05-03 09:30:00,
2013-05-03 04:35:00,32.8,32.0,30.20,North,355,0.0,0.0,97,0.00,,,0.04,Wunderground v.1.15,2013-05-03 09:35:00,
2013-05-03 04:40:00,32.8,32.0,30.21,North,355,0.0,0.0,97,0.00,,,0.04,Wunderground v.1.15,2013-05-03 09:40:00,
2013-05-03 04:45:00,32.7,31.9,30.20,North,360,0.0,0.0,97,0.00,,,0.04,Wunderground v.1.15,2013-05-03 09:45:00,
2013-05-03 04:50:00,32.7,31.9,30.20,NNW,346,0.0,0.0,97,0.00,,,0.04,Wunderground v.1.15,2013-05-03 09:50:00,
2013-05-03 05:00:00,32.7,31.9,30.20,NE,45,0.0,0.0,97,0.00,,,0.04,Wunderground v.1.15,2013-05-03 10:00:00,
2013-05-03 05:05:00,32.7,31.9,30.20,NNE,21,0.0,0.0,97,0.00,,,0.04,Wunderground v.1.15,2013-05-03 10:05:00,
2013-05-03 05:10:00,32.7,31.9,30.19,NNW,345,0.0,0.0,97,0.00,,,0.04,Wunderground v.1.15,2013-05-03 10:10:00,
2013-05-03 05:15:00,32.7,31.9,30.19,North,349,0.0,0.0,97,0.00,,,0.04,Wunderground v.1.15,2013-05-03 10:15:00,
2013-05-03 05:20:00,32.7,31.9,30.19,NNW,342,0.0,0.0,97,0.00,,,0.04,Wunderground v.1.15,2013-05-03 10:20:00,
2013-05-03 05:25:00,32.7,31.9,30.20,NNW,338,0.0,0.0,97,0.00,,,0.04,Wunderground v.1.15,2013-05-03 10:25:00,
2013-05-03 05:35:00,32.6,31.8,30.21,North,355,0.0,0.0,97,0.00,,,0.04,Wunderground v.1.15,2013-05-03 10:35:00,
2013-05-03 05:40:00,32.6,31.8,30.21,NNW,334,0.0,0.0,97,0.00,,,0.04,Wunderground v.1.15,2013-05-03 10:40:00,
2013-05-03 05:45:00,32.6,31.8,30.20,North,5,0.0,0.0,97,0.00,,,0.04,Wunderground v.1.15,2013-05-03 10:45:00,
2013-05-03 05:50:00,32.6,31.8,30.20,North,355,0.0,0.0,97,0.00,,,0.04,Wunderground v.1.15,2013-05-03 10:50:00,
2013-05-03 06:00:00,32.6,31.8,30.20,North,355,0.0,0.0,97,0.00,,,0.04,Wunderground v.1.15,2013-05-03 11:00:00,
2013-05-03 06:05:00,32.5,31.7,30.20,North,360,0.0,0.0,97,0.00,,,0.04,Wunderground v.1.15,2013-05-03 11:05:00,
2013-05-03 06:10:00,32.5,31.7,30.20,NNW,329,0.0,0.0,97,0.00,,,0.04,Wunderground v.1.15,2013-05-03 11:10:00,
2013-05-03 06:15:00,32.5,31.7,30.20,North,5,0.0,0.0,97,0.00,,,0.04,Wunderground v.1.15,2013-05-03 11:15:00,
2013-05-03 06:20:00,32.5,31.7,30.20,NNW,343,0.0,0.0,97,0.00,,,0.04,Wunderground v.1.15,2013-05-03 11:20:00,
2013-05-03 06:25:00,32.5,31.7,30.19,NNW,348,0.0,0.0,97,0.00,,,0.04,Wunderground v.1.15,2013-05-03 11:25:00,
2013-05-03 06:30:00,32.5,31.7,30.19,NNW,330,0.0,0.0,97,0.00,,,0.04,Wunderground v.1.15,2013-05-03 11:30:00,
2013-05-03 06:35:00,32.5,31.7,30.19,NNW,346,0.0,0.0,97,0.00,,,0.04,Wunderground v.1.15,2013-05-03 11:35:00,
2013-05-03 06:45:00,32.4,31.6,30.19,NNE,19,0.0,0.0,97,0.00,,,0.04,Wunderground v.1.15,2013-05-03 11:45:00,
2013-05-03 06:55:00,32.4,31.6,30.19,North,355,0.0,0.0,97,0.00,,,0.04,Wunderground v.1.15,2013-05-03 11:55:00,
2013-05-03 07:00:00,32.4,31.6,30.19,North,350,0.0,0.0,97,0.00,,,0.04,Wunderground v.1.15,2013-05-03 12:00:00,
2013-05-03 07:10:00,32.4,31.6,30.18,NE,51,0.0,0.0,97,0.00,,,0.04,Wunderground v.1.15,2013-05-03 12:10:00,
2013-05-03 07:15:00,32.4,31.6,30.18,North,10,0.0,0.0,97,0.00,,,0.04,Wunderground v.1.15,2013-05-03 12:15:00,
2013-05-03 07:20:00,32.3,31.5,30.17,North,5,0.0,0.0,97,0.00,,,0.04,Wunderground v.1.15,2013-05-03 12:20:00,
2013-05-03 07:25:00,32.3,31.5,30.17,NE,55,0.0,0.0,97,0.00,,,0.04,Wunderground v.1.15,2013-05-03 12:25:00,
2013-05-03 07:30:00,32.3,31.5,30.17,NNE,12,0.0,0.0,97,0.00,,,0.04,Wunderground v.1.15,2013-05-03 12:30:00,
2013-05-03 07:40:00,32.3,31.5,30.16,NNE,17,0.0,0.0,97,0.00,,,0.04,Wunderground v.1.15,2013-05-03 12:40:00,
2013-05-03 07:45:00,32.3,31.5,30.16,NNE,17,0.0,0.0,97,0.00,,,0.04,Wunderground v.1.15,2013-05-03 12:45:00,
2013-05-03 07:50:00,32.3,31.5,30.16,North,5,0.0,0.0,97,0.00,,,0.04,Wunderground v.1.15,2013-05-03 12:50:00,
2013-05-03 07:55:00,32.3,31.5,30.16,North,355,0.0,0.0,97,0.00,,,0.04,Wunderground v.1.15,2013-05-03 12:55:00,
2013-05-03 08:00:00,32.4,31.6,30.16,NNW,336,0.0,0.0,97,0.00,,,0.04,Wunderground v.1.15,2013-05-03 13:00:00,
2013-05-03 08:05:00,32.5,31.7,30.16,North,350,0.0,0.0,97,0.00,,,0.04,Wunderground v.1.15,2013-05-03 13:05:00,
2013-05-03 08:10:00,32.5,31.7,30.16,North,351,0.0,0.0,97,0.00,,,0.04,Wunderground v.1.15,2013-05-03 13:10:00,
2013-05-03 08:15:00,32.5,31.7,30.16,North,350,0.0,0.0,97,0.00,,,0.04,Wunderground v.1.15,2013-05-03 13:15:00,
2013-05-03 08:20:00,32.6,31.8,30.16,North,355,0.0,0.0,97,0.00,,,0.04,Wunderground v.1.15,2013-05-03 13:20:00,
2013-05-03 08:25:00,32.6,31.8,30.16,North,355,0.0,0.0,97,0.00,,,0.04,Wunderground v.1.15,2013-05-03 13:25:00,
2013-05-03 08:30:00,32.6,31.8,30.16,North,355,0.0,0.0,97,0.00,,,0.04,Wunderground v.1.15,2013-05-03 13:30:00,
2013-05-03 08:40:00,32.7,31.9,30.16,North,355,0.0,0.0,97,0.00,,,0.04,Wunderground v.1.15,2013-05-03 13:40:00,
2013-05-03 08:45:00,32.7,31.9,30.16,North,355,0.0,0.0,97,0.00,,,0.05,Wunderground v.1.15,2013-05-03 13:45:00,
2013-05-03 08:50:00,32.8,32.0,30.15,North,355,0.0,0.0,97,0.00,,,0.05,Wunderground v.1.15,2013-05-03 13:50:00,
2013-05-03 08:55:00,32.9,32.1,30.16,North,355,0.0,0.0,97,0.00,,,0.05,Wunderground v.1.15,2013-05-03 13:55:00,
2013-05-03 09:00:00,32.9,32.1,30.16,North,9,0.0,0.0,97,0.00,,,0.05,Wunderground v.1.15,2013-05-03 14:00:00,
2013-05-03 09:10:00,32.8,32.0,30.16,North,350,0.0,0.0,97,0.00,,,0.05,Wunderground v.1.15,2013-05-03 14:10:00,
2013-05-03 09:15:00,32.9,32.1,30.16,North,349,0.0,0.0,97,0.00,,,0.05,Wunderground v.1.15,2013-05-03 14:15:00,
2013-05-03 09:20:00,32.9,32.1,30.16,NNE,19,0.0,0.0,97,0.00,,,0.06,Wunderground v.1.15,2013-05-03 14:20:00,
2013-05-03 09:25:00,32.9,32.1,30.16,North,9,0.0,0.0,97,0.00,,,0.06,Wunderground v.1.15,2013-05-03 14:25:00,
2013-05-03 09:30:00,32.9,32.1,30.16,NNW,332,0.0,0.0,97,0.00,,,0.06,Wunderground v.1.15,2013-05-03 14:30:00,
2013-05-03 09:35:00,32.9,32.1,30.16,NNW,334,0.0,0.0,97,0.00,,,0.06,Wunderground v.1.15,2013-05-03 14:35:00,
2013-05-03 09:45:00,33.0,32.2,30.15,North,350,0.0,0.0,97,0.00,,,0.06,Wunderground v.1.15,2013-05-03 14:45:00,
2013-05-03 09:50:00,33.0,32.2,30.15,North,355,0.0,0.0,97,0.00,,,0.06,Wunderground v.1.15,2013-05-03 14:50:00,
2013-05-03 09:55:00,33.1,32.3,30.15,NE,36,0.0,0.0,97,0.00,,,0.07,Wunderground v.1.15,2013-05-03 14:55:00,
2013-05-03 10:00:00,33.2,32.4,30.15,North,355,0.0,0.0,97,0.00,,,0.07,Wunderground v.1.15,2013-05-03 15:00:00,
2013-05-03 10:05:00,33.5,32.7,30.14,NNW,346,0.0,0.0,97,0.00,,,0.07,Wunderground v.1.15,2013-05-03 15:05:00,
2013-05-03 10:10:00,33.8,33.0,30.14,NNE,31,0.0,0.0,97,0.00,,,0.07,Wunderground v.1.15,2013-05-03 15:10:00,
2013-05-03 10:20:00,33.9,33.1,30.14,NNE,28,1.0,1.0,97,0.00,,,0.08,Wunderground v.1.15,2013-05-03 15:20:00,
2013-05-03 10:25:00,33.9,33.1,30.14,North,5,1.0,1.0,97,0.00,,,0.08,Wunderground v.1.15,2013-05-03 15:25:00,
2013-05-03 10:30:00,33.9,33.1,30.13,NNW,327,1.0,4.0,97,0.00,,,0.08,Wunderground v.1.15,2013-05-03 15:30:00,
2013-05-03 10:40:00,33.9,33.1,30.13,North,349,2.0,2.0,97,0.00,,,0.09,Wunderground v.1.15,2013-05-03 15:40:00,
2013-05-03 10:45:00,33.7,32.9,30.13,North,11,2.0,6.0,97,0.00,,,0.09,Wunderground v.1.15,2013-05-03 15:45:00,
2013-05-03 10:50:00,33.7,32.9,30.12,North,355,2.0,2.0,97,0.05,,,0.10,Wunderground v.1.15,2013-05-03 15:50:00,
2013-05-03 10:55:00,33.6,32.8,30.13,NNW,331,2.0,4.0,97,0.05,,,0.10,Wunderground v.1.15,2013-05-03 15:55:00,
2013-05-03 11:00:00,33.5,32.7,30.12,NW,323,2.0,2.0,97,0.05,,,0.10,Wunderground v.1.15,2013-05-03 16:00:00,
2013-05-03 11:05:00,33.6,32.8,30.12,NNW,344,2.0,2.0,97,0.04,,,0.10,Wunderground v.1.15,2013-05-03 16:05:00,
2013-05-03 11:10:00,33.6,32.8,30.11,NW,318,1.0,3.0,97,0.00,,,0.10,Wunderground v.1.15,2013-05-03 16:10:00,
2013-05-03 11:15:00,33.6,32.8,30.11,NW,312,3.0,3.0,97,0.00,,,0.11,Wunderground v.1.15,2013-05-03 16:15:00,
2013-05-03 11:25:00,33.6,32.8,30.11,NNE,29,2.0,4.0,97,0.05,,,0.12,Wunderground v.1.15,2013-05-03 16:25:00,
2013-05-03 11:30:00,33.8,33.0,30.11,North,355,1.0,1.0,97,0.05,,,0.12,Wunderground v.1.15,2013-05-03 16:30:00,
2013-05-03 11:35:00,33.9,33.1,30.10,North,360,2.0,2.0,97,0.05,,,0.12,Wunderground v.1.15,2013-05-03 16:35:00,
2013-05-03 11:40:00,33.9,33.1,30.10,North,355,2.0,2.0,97,0.04,,,0.13,Wunderground v.1.15,2013-05-03 16:40:00,
2013-05-03 11:45:00,33.9,33.1,30.11,ENE,76,2.0,3.0,97,0.04,,,0.13,Wunderground v.1.15,2013-05-03 16:45:00,
2013-05-03 11:50:00,33.8,33.0,30.11,NNW,343,2.0,2.0,97,0.07,,,0.14,Wunderground v.1.15,2013-05-03 16:50:00,
2013-05-03 11:55:00,33.6,32.8,30.11,NNE,26,3.0,3.0,97,0.07,,,0.14,Wunderground v.1.15,2013-05-03 16:55:00,
2013-05-03 12:00:00,33.6,32.8,30.11,NNE,33,3.0,5.0,97,0.04,,,0.14,Wunderground v.1.15,2013-05-03 17:00:00,
2013-05-03 12:05:00,33.5,32.7,30.12,NNW,342,3.0,7.0,97,0.04,,,0.15,Wunderground v.1.15,2013-05-03 17:05:00,
2013-05-03 12:10:00,33.4,32.6,30.11,NW,321,4.0,4.0,97,0.04,,,0.15,Wunderground v.1.15,2013-05-03 17:10:00,
2013-05-03 12:15:00,33.4,32.6,30.11,North,10,4.0,4.0,97,0.06,,,0.16,Wunderground v.1.15,2013-05-03 17:15:00,
2013-05-03 12:25:00,33.3,32.5,30.10,NNE,24,4.0,9.0,97,0.04,,,0.16,Wunderground v.1.15,2013-05-03 17:25:00,
2013-05-03 12:30:00,33.4,32.6,30.11,North,360,3.0,3.0,97,0.00,,,0.17,Wunderground v.1.15,2013-05-03 17:30:00,
2013-05-03 12:35:00,33.5,32.7,30.10,NW,318,3.0,3.0,97,0.00,,,0.17,Wunderground v.1.15,2013-05-03 17:35:00,
2013-05-03 12:40:00,33.5,32.7,30.10,North,355,3.0,3.0,97,0.00,,,0.17,Wunderground v.1.15,2013-05-03 17:40:00,
2013-05-03 12:45:00,33.5,32.7,30.10,WNW,299,3.0,6.0,97,0.05,,,0.18,Wunderground v.1.15,2013-05-03 17:45:00,
2013-05-03 12:50:00,33.6,32.8,30.09,North,5,3.0,3.0,97,0.05,,,0.18,Wunderground v.1.15,2013-05-03 17:50:00,
2013-05-03 12:55:00,33.6,32.8,30.09,North,360,3.0,3.0,97,0.04,,,0.18,Wunderground v.1.15,2013-05-03 17:55:00,
2013-05-03 13:00:00,33.8,33.0,30.09,NNW,333,3.0,6.0,97,0.00,,,0.18,Wunderground v.1.15,2013-05-03 18:00:00,
2013-05-03 13:05:00,33.7,32.9,30.09,North,350,4.0,6.0,97,0.00,,,0.19,Wunderground v.1.15,2013-05-03 18:05:00,
2013-05-03 13:10:00,33.7,32.9,30.09,NW,320,4.0,4.0,97,0.00,,,0.19,Wunderground v.1.15,2013-05-03 18:10:00,
2013-05-03 13:20:00,33.9,32.9,30.09,North,349,2.0,5.0,96,0.04,,,0.20,Wunderground v.1.15,2013-05-03 18:20:00,
2013-05-03 13:30:00,33.9,32.9,30.09,NE,38,3.0,3.0,96,0.04,,,0.20,Wunderground v.1.15,2013-05-03 18:30:00,
2013-05-03 13:35:00,33.9,32.9,30.08,NNW,342,3.0,4.0,96,0.00,,,0.21,Wunderground v.1.15,2013-05-03 18:35:00,
2013-05-03 13:40:00,33.9,32.9,30.08,North,350,4.0,6.0,96,0.00,,,0.21,Wunderground v.1.15,2013-05-03 18:40:00,
2013-05-03 13:45:00,33.9,32.6,30.08,NW,324,4.0,6.0,95,0.00,,,0.21,Wunderground v.1.15,2013-05-03 18:45:00,
2013-05-03 13:55:00,33.9,32.6,30.09,NNW,333,4.0,5.0,95,0.05,,,0.22,Wunderground v.1.15,2013-05-03 18:55:00,
2013-05-03 14:00:00,33.9,32.6,30.09,North,9,4.0,5.0,95,0.05,,,0.22,Wunderground v.1.15,2013-05-03 19:00:00,
2013-05-03 14:05:00,34.0,32.7,30.09,NNW,341,4.0,6.0,95,0.00,,,0.22,Wunderground v.1.15,2013-05-03 19:05:00,
2013-05-03 14:10:00,34.2,32.9,30.08,NW,322,4.0,4.0,95,0.00,,,0.23,Wunderground v.1.15,2013-05-03 19:10:00,
2013-05-03 14:15:00,34.3,33.0,30.08,NNW,333,4.0,11.0,95,0.00,,,0.23,Wunderground v.1.15,2013-05-03 19:15:00,
2013-05-03 14:25:00,34.5,33.2,30.07,North,355,4.0,5.0,95,0.05,,,0.24,Wunderground v.1.15,2013-05-03 19:25:00,
2013-05-03 14:30:00,34.6,33.1,30.07,North,351,3.0,5.0,94,0.05,,,0.24,Wunderground v.1.15,2013-05-03 19:30:00,
2013-05-03 14:35:00,34.6,33.1,30.07,NNW,330,4.0,5.0,94,0.04,,,0.25,Wunderground v.1.15,2013-05-03 19:35:00,
2013-05-03 14:40:00,34.6,33.1,30.07,North,355,5.0,5.0,94,0.04,,,0.25,Wunderground v.1.15,2013-05-03 19:40:00,
2013-05-03 14:45:00,34.7,33.2,30.07,NNW,346,3.0,5.0,94,0.07,,,0.26,Wunderground v.1.15,2013-05-03 19:45:00,
2013-05-03 14:50:00,34.7,33.2,30.07,NNW,334,2.0,2.0,94,0.06,,,0.26,Wunderground v.1.15,2013-05-03 19:50:00,
2013-05-03 14:55:00,34.7,33.2,30.07,NNW,346,1.0,2.0,94,0.05,,,0.27,Wunderground v.1.15,2013-05-03 19:55:00,
2013-05-03 15:05:00,34.7,32.9,30.07,North,11,2.0,3.0,93,0.06,,,0.28,Wunderground v.1.15,2013-05-03 20:05:00,
2013-05-03 15:10:00,34.7,32.9,30.07,NNW,331,2.0,2.0,93,0.06,,,0.28,Wunderground v.1.15,2013-05-03 20:10:00,
2013-05-03 15:15:00,34.8,33.0,30.07,NNW,331,2.0,4.0,93,0.06,,,0.29,Wunderground v.1.15,2013-05-03 20:15:00,
2013-05-03 15:20:00,34.8,33.0,30.07,NNE,15,3.0,7.0,93,0.06,,,0.29,Wunderground v.1.15,2013-05-03 20:20:00,
2013-05-03 15:30:00,34.8,33.0,30.06,NNW,333,3.0,3.0,93,0.07,,,0.30,Wunderground v.1.15,2013-05-03 20:30:00,
2013-05-03 15:35:00,34.7,32.9,30.06,WNW,300,3.0,3.0,93,0.05,,,0.31,Wunderground v.1.15,2013-05-03 20:35:00,
2013-05-03 15:40:00,34.6,32.8,30.05,NNW,331,5.0,5.0,93,0.05,,,0.31,Wunderground v.1.15,2013-05-03 20:40:00,
2013-05-03 15:45:00,34.6,32.8,30.05,NNE,21,5.0,5.0,93,0.05,,,0.31,Wunderground v.1.15,2013-05-03 20:45:00,
2013-05-03 15:50:00,34.7,32.9,30.04,NW,322,4.0,6.0,93,0.05,,,0.32,Wunderground v.1.15,2013-05-03 20:50:00,
2013-05-03 15:55:00,34.6,32.8,30.05,North,355,5.0,6.0,93,0.05,,,0.32,Wunderground v.1.15,2013-05-03 20:55:00,
2013-05-03 16:00:00,34.5,32.7,30.05,NNW,346,6.0,6.0,93,0.05,,,0.33,Wunderground v.1.15,2013-05-03 21:00:00,
2013-05-03 16:05:00,34.4,32.6,30.04,North,11,6.0,6.0,93,0.05,,,0.33,Wunderground v.1.15,2013-05-03 21:05:00,
2013-05-03 16:15:00,34.3,32.5,30.02,North,11,5.0,7.0,93,0.07,,,0.34,Wunderground v.1.15,2013-05-03 21:15:00,
2013-05-03 16:20:00,34.3,32.5,30.03,North,350,6.0,11.0,93,0.05,,,0.34,Wunderground v.1.15,2013-05-03 21:20:00,
2013-05-03 16:25:00,34.3,32.5,30.03,NW,322,6.0,11.0,93,0.04,,,0.35,Wunderground v.1.15,2013-05-03 21:25:00,
2013-05-03 16:30:00,34.4,32.6,30.03,NNW,343,5.0,6.0,93,0.04,,,0.35,Wunderground v.1.15,2013-05-03 21:30:00,
2013-05-03 16:35:00,34.4,32.6,30.03,WNW,300,5.0,6.0,93,0.06,,,0.36,Wunderground v.1.15,2013-05-03 21:35:00,
2013-05-03 16:45:00,34.3,32.5,30.03,North,355,4.0,9.0,93,0.06,,,0.37,Wunderground v.1.15,2013-05-03 21:45:00,
2013-05-03 16:50:00,34.3,32.5,30.03,NNW,340,5.0,5.0,93,0.09,,,0.38,Wunderground v.1.15,2013-05-03 21:50:00,
2013-05-03 16:55:00,34.2,32.4,30.02,NNW,343,6.0,6.0,93,0.09,,,0.38,Wunderground v.1.15,2013-05-03 21:55:00,
2013-05-03 17:00:00,34.1,32.3,30.02,NNW,332,7.0,7.0,93,0.06,,,0.38,Wunderground v.1.15,2013-05-03 22:00:00,
2013-05-03 17:05:00,34.0,32.2,30.02,NNE,22,6.0,14.0,93,0.06,,,0.39,Wunderground v.1.15,2013-05-03 22:05:00,
2013-05-03 17:10:00,34.1,32.3,30.01,NNW,343,5.0,6.0,93,0.11,,,0.40,Wunderground v.1.15,2013-05-03 22:10:00,
2013-05-03 17:15:00,34.0,32.2,30.01,North,349,5.0,6.0,93,0.09,,,0.41,Wunderground v.1.15,2013-05-03 22:15:00,
2013-05-03 17:25:00,34.2,32.7,30.04,NNW,341,3.0,6.0,94,0.09,,,0.42,Wunderground v.1.15,2013-05-03 22:25:00,
2013-05-03 17:35:00,34.1,32.6,30.04,NNE,26,3.0,3.0,94,0.06,,,0.43,Wunderground v.1.15,2013-05-03 22:35:00,
2013-05-03 17:40:00,34.1,32.6,30.04,North,355,2.0,4.0,94,0.07,,,0.44,Wunderground v.1.15,2013-05-03 22:40:00,
2013-05-03 17:45:00,34.1,32.6,30.03,North,360,2.0,4.0,94,0.07,,,0.44,Wunderground v.1.15,2013-05-03 22:45:00,
2013-05-03 17:50:00,34.0,32.5,30.03,NNW,348,4.0,4.0,94,0.04,,,0.44,Wunderground v.1.15,2013-05-03 22:50:00,
2013-05-03 17:55:00,33.9,32.4,30.03,NE,46,4.0,4.0,94,0.04,,,0.45,Wunderground v.1.15,2013-05-03 22:55:00,
2013-05-03 18:00:00,33.9,32.4,30.03,North,351,4.0,4.0,94,0.04,,,0.45,Wunderground v.1.15,2013-05-03 23:00:00,
2013-05-03 18:05:00,33.9,32.4,30.04,NNW,334,2.0,6.0,94,0.05,,,0.46,Wunderground v.1.15,2013-05-03 23:05:00,
2013-05-03 18:10:00,33.9,32.4,30.03,North,355,2.0,3.0,94,0.05,,,0.46,Wunderground v.1.15,2013-05-03 23:10:00,
2013-05-03 18:20:00,33.9,32.4,30.02,North,360,5.0,6.0,94,0.04,,,0.46,Wunderground v.1.15,2013-05-03 23:20:00,
2013-05-03 18:25:00,33.9,32.4,30.02,North,355,4.0,6.0,94,0.00,,,0.47,Wunderground v.1.15,2013-05-03 23:25:00,
2013-05-03 18:30:00,33.9,32.4,30.02,NNE,17,4.0,8.0,94,0.00,,,0.47,Wunderground v.1.15,2013-05-03 23:30:00,
2013-05-03 18:40:00,33.9,32.4,30.04,NNW,337,3.0,3.0,94,0.04,,,0.48,Wunderground v.1.15,2013-05-03 23:40:00,
2013-05-03 18:45:00,33.9,32.4,30.04,NNW,336,1.0,3.0,94,0.04,,,0.48,Wunderground v.1.15,2013-05-03 23:45:00,
2013-05-03 18:50:00,33.9,32.4,30.04,NNW,337,1.0,7.0,94,0.04,,,0.48,Wunderground v.1.15,2013-05-03 23:50:00,
2013-05-03 18:55:00,33.9,32.6,30.03,NNW,336,3.0,7.0,95,0.00,,,0.48,Wunderground v.1.15,2013-05-03 23:55:00,
2013-05-03 19:00:00,33.9,32.6,30.02,NNW,342,5.0,7.0,95,0.00,,,0.48,Wunderground v.1.15,2013-05-04 00:00:00,
2013-05-03 19:10:00,33.9,32.6,30.02,NNW,343,5.0,5.0,95,0.00,,,0.48,Wunderground v.1.15,2013-05-04 00:10:00,
2013-05-03 19:15:00,33.9,32.6,30.02,NNW,329,5.0,6.0,95,0.00,,,0.49,Wunderground v.1.15,2013-05-04 00:15:00,
2013-05-03 19:20:00,33.9,32.6,30.02,NW,317,4.0,4.0,95,0.00,,,0.49,Wunderground v.1.15,2013-05-04 00:20:00,
2013-05-03 19:25:00,33.9,32.6,30.03,NNW,330,3.0,4.0,95,0.00,,,0.49,Wunderground v.1.15,2013-05-04 00:25:00,
2013-05-03 19:30:00,33.9,32.6,30.03,NNW,328,2.0,2.0,95,0.00,,,0.49,Wunderground v.1.15,2013-05-04 00:30:00,
2013-05-03 19:35:00,33.8,32.5,30.03,NNW,342,3.0,3.0,95,0.00,,,0.49,Wunderground v.1.15,2013-05-04 00:35:00,
2013-05-03 19:45:00,33.8,32.5,30.02,North,355,3.0,3.0,95,0.00,,,0.49,Wunderground v.1.15,2013-05-04 00:45:00,
2013-05-03 19:55:00,33.8,32.5,30.03,NNW,331,3.0,8.0,95,0.00,,,0.50,Wunderground v.1.15,2013-05-04 00:55:00,
2013-05-03 20:00:00,33.8,32.5,30.02,North,360,2.0,8.0,95,0.00,,,0.50,Wunderground v.1.15,2013-05-04 01:00:00,
2013-05-03 20:05:00,33.8,32.5,30.02,NW,319,3.0,8.0,95,0.00,,,0.50,Wunderground v.1.15,2013-05-04 01:05:00,
2013-05-03 20:10:00,33.8,32.5,30.02,North,350,4.0,4.0,95,0.00,,,0.50,Wunderground v.1.15,2013-05-04 01:10:00,
2013-05-03 20:15:00,33.8,32.5,30.02,NNW,332,4.0,4.0,95,0.00,,,0.50,Wunderground v.1.15,2013-05-04 01:15:00,
2013-05-03 20:20:00,33.8,32.5,30.02,NNW,333,4.0,4.0,95,0.00,,,0.50,Wunderground v.1.15,2013-05-04 01:20:00,
2013-05-03 20:25:00,33.8,32.5,30.01,NNW,341,4.0,6.0,95,0.00,,,0.50,Wunderground v.1.15,2013-05-04 01:25:00,
2013-05-03 20:35:00,33.8,32.5,30.02,NNW,339,4.0,14.0,95,0.00,,,0.51,Wunderground v.1.15,2013-05-04 01:35:00,
2013-05-03 20:40:00,33.8,32.5,30.02,NNW,330,3.0,3.0,95,0.06,,,0.52,Wunderground v.1.15,2013-05-04 01:40:00,
2013-05-03 20:45:00,33.8,32.8,30.02,NW,325,4.0,6.0,96,0.06,,,0.52,Wunderground v.1.15,2013-05-04 01:45:00,
2013-05-03 20:50:00,33.8,32.8,30.02,NNW,333,4.0,7.0,96,0.06,,,0.52,Wunderground v.1.15,2013-05-04 01:50:00,
2013-05-03 20:55:00,33.8,32.8,30.02,NNE,17,3.0,7.0,96,0.05,,,0.53,Wunderground v.1.15,2013-05-04 01:55:00,
2013-05-03 21:00:00,33.8,32.8,30.01,North,355,3.0,3.0,96,0.05,,,0.53,Wunderground v.1.15,2013-05-04 02:00:00,
2013-05-03 21:05:00,33.8,32.8,30.01,NNE,15,4.0,4.0,96,0.06,,,0.54,Wunderground v.1.15,2013-05-04 02:05:00,
2013-05-03 21:15:00,33.8,32.8,30.00,NNW,327,3.0,6.0,96,0.04,,,0.54,Wunderground v.1.15,2013-05-04 02:15:00,
2013-05-03 21:20:00,33.8,32.8,30.00,North,355,5.0,5.0,96,0.00,,,0.54,Wunderground v.1.15,2013-05-04 02:20:00,
2013-05-03 21:25:00,33.8,32.8,30.00,NNW,338,5.0,7.0,96,0.00,,,0.54,Wunderground v.1.15,2013-05-04 02:25:00,
2013-05-03 21:30:00,33.9,32.9,30.00,NNW,339,5.0,6.0,96,0.00,,,0.55,Wunderground v.1.15,2013-05-04 02:30:00,
2013-05-03 21:35:00,33.9,32.9,30.00,NNE,18,5.0,6.0,96,0.09,,,0.56,Wunderground v.1.15,2013-05-04 02:35:00,
2013-05-03 21:40:00,33.9,32.9,30.00,North,5,5.0,5.0,96,0.08,,,0.56,Wunderground v.1.15,2013-05-04 02:40:00,
2013-05-03 21:50:00,33.9,32.9,29.99,NNW,333,5.0,9.0,96,0.10,,,0.58,Wunderground v.1.15,2013-05-04 02:50:00,
2013-05-03 21:55:00,33.9,32.9,29.98,North,360,6.0,9.0,96,0.08,,,0.58,Wunderground v.1.15,2013-05-04 02:55:00,
2013-05-03 22:00:00,33.9,32.9,29.99,NNW,334,5.0,6.0,96,0.05,,,0.58,Wunderground v.1.15,2013-05-04 03:00:00,
2013-05-03 22:05:00,33.9,32.9,29.99,North,11,4.0,6.0,96,0.05,,,0.59,Wunderground v.1.15,2013-05-04 03:05:00,
2013-05-03 22:10:00,33.9,32.9,29.99,NW,323,4.0,4.0,96,0.07,,,0.60,Wunderground v.1.15,2013-05-04 03:10:00,
2013-05-03 22:20:00,33.9,32.9,29.99,North,355,5.0,5.0,96,0.06,,,0.60,Wunderground v.1.15,2013-05-04 03:20:00,
2013-05-03 22:25:00,33.9,32.9,29.99,NNW,332,4.0,9.0,96,0.04,,,0.60,Wunderground v.1.15,2013-05-04 03:25:00,
2013-05-03 22:30:00,33.9,32.9,29.99,North,360,4.0,4.0,96,0.04,,,0.61,Wunderground v.1.15,2013-05-04 03:30:00,
2013-05-03 22:35:00,33.9,32.9,29.99,North,5,4.0,4.0,96,0.04,,,0.61,Wunderground v.1.15,2013-05-04 03:35:00,
2013-05-03 22:40:00,33.9,32.9,29.98,North,355,4.0,9.0,96,0.05,,,0.62,Wunderground v.1.15,2013-05-04 03:40:00,
2013-05-03 22:45:00,33.9,32.9,29.99,NNW,332,4.0,11.0,96,0.05,,,0.62,Wunderground v.1.15,2013-05-04 03:45:00,
2013-05-03 22:50:00,33.9,32.9,29.98,NNE,25,4.0,4.0,96,0.05,,,0.62,Wunderground v.1.15,2013-05-04 03:50:00,
2013-05-03 22:55:00,33.9,32.9,29.97,NW,322,5.0,8.0,96,0.00,,,0.62,Wunderground v.1.15,2013-05-04 03:55:00,
2013-05-03 23:05:00,33.9,32.9,29.96,North,11,6.0,6.0,96,0.00,,,0.63,Wunderground v.1.15,2013-05-04 04:05:00,
2013-05-03 23:10:00,33.9,32.9,29.95,North,9,6.0,7.0,96,0.05,,,0.64,Wunderground v.1.15,2013-05-04 04:10:00,
2013-05-03 23:15:00,33.9,32.9,29.95,NNW,332,5.0,7.0,96,0.05,,,0.64,Wunderground v.1.15,2013-05-04 04:15:00,
2013-05-03 23:20:00,33.9,32.9,29.95,NNW,348,5.0,6.0,96,0.05,,,0.64,Wunderground v.1.15,2013-05-04 04:20:00,
2013-05-03 23:25:00,33.9,32.9,29.95,North,355,4.0,6.0,96,0.04,,,0.64,Wunderground v.1.15,2013-05-04 04:25:00,
2013-05-03 23:30:00,33.9,32.9,29.94,North,360,4.0,4.0,96,0.00,,,0.65,Wunderground v.1.15,2013-05-04 04:30:00,
2013-05-03 23:35:00,33.9,32.9,29.95,NW,325,5.0,6.0,96,0.00,,,0.65,Wunderground v.1.15,2013-05-04 04:35:00,
2013-05-03 23:40:00,34.0,33.0,29.94,NNW,344,5.0,5.0,96,0.00,,,0.65,Wunderground v.1.15,2013-05-04 04:40:00,
2013-05-03 23:50:00,34.0,33.0,29.94,North,360,5.0,5.0,96,0.04,,,0.66,Wunderground v.1.15,2013-05-04 04:50:00,
2013-05-03 23:55:00,34.0,33.0,29.94,North,360,4.0,5.0,96,0.04,,,0.66,Wunderground v.1.15,2013-05-04 04:55:00,